Regional Weather Roundup
Issued by NWS San Angelo, TX

Home | Current Version | Previous Version | Text Only | Print | Product List | Glossary On
Versions: 1 2 3 4 5 6 7 8 9 10 11 12 13 14 15 16 17 18 19 20 21 22 23 24 25 26 27 28 29 30 31 32 33 34 35 36 37 38 39 40 41 42 43 44 45 46 47 48 49 50
441
ASUS44 KSJT 060210
RWRSJT
WEST CENTRAL TEXAS REGIONAL WEATHER ROUNDUP
NATIONAL WEATHER SERVICE SAN ANGELO TX
800 PM CST MON DEC 05 2016

NOTE: "FAIR" INDICATES FEW OR NO CLOUDS BELOW 12,000 FEET WITH NO
SIGNIFICANT WEATHER AND/OR OBSTRUCTIONS TO VISIBILITY.

TXZ049-054-064>066-071>073-076>078-098-099-113-114-127-128-139-140-
154-155-168>170-060300
...LOCATIONS ACROSS WEST CENTRAL TEXAS...

CITY           SKY/WX    TMP DP  RH WIND       PRES   REMARKS
SAN ANGELO     CLEAR     45  43  93 S6        29.73F
ABILENE        CLEAR     45  44  97 SW8       29.71S
DYESS AFB      CLEAR     44  41  90 SE9       29.68F WCI  39
JUNCTION       PTCLDY    49  47  93 SW5       29.76S
SWEETWATER     CLEAR     52  44  74 S16       29.70S
BROWNWOOD      CLEAR     45  45 100 S3        29.74R
COLEMAN        CLEAR     46  44  92 SW7       29.73S
SONORA           N/A     45  45 100 CALM      29.81S
OZONA          NOT AVBL
BRADY          NOT AVBL
$$

TEXAS PANHANDLE/OKLAHOMA PANHANDLE

CITY           SKY/WX    TMP DP  RH WIND       PRES   REMARKS
AMARILLO       CLEAR     45  27  49 S5        29.60R
BORGER         CLEAR     49  34  56 E6        29.59R
CANADIAN       CLEAR     46  35  66 E5        29.61R
DALHART        CLEAR     48  27  44 N12       29.65R
DUMAS          CLEAR     43  26  50 NE9       29.60R WCI  38
GUYMON         NOT AVBL
HEREFORD       CLEAR     51  24  34 W13G18    29.62R
PAMPA          CLEAR     45  35  68 SE10      29.61R WCI  39
PERRYTON       CLEAR     41  33  72 S8        29.59R WCI  36
$$

SOUTHERN PANHANDLE/SOUTH PLAINS/ROLLING PLAINS

CITY           SKY/WX    TMP DP  RH WIND       PRES   REMARKS
LUBBOCK        MOCLDY    53  34  48 W15       29.64R
SNYDER         CLEAR     47  42  81 S10       29.68F
CHILDRESS      CLEAR     45  39  79 SE12      29.61S WCI  39
SEMINOLE       CLEAR     47  37  68 W12       29.73R
$$

PERMIAN BASIN

CITY           SKY/WX    TMP DP  RH WIND       PRES   REMARKS
MIDLAND        CLEAR     53  36  52 SW12      29.72R
ODESSA         CLEAR     52  36  54 W12       29.74R
WINK           CLEAR     53  35  50 W12       29.74R
$$

FAR WEST/SOUTHWEST MOUNTAINS/TRANS PECOS

CITY           SKY/WX    TMP DP  RH WIND       PRES   REMARKS
ALPINE         CLEAR     53  29  39 W20G28    29.91S
DRYDEN           N/A     57  44  62 W15       29.77R
EL PASO        PTCLDY    58  25  28 W13       29.87R
FORT STOCKTON  CLEAR     53  38  56 SW14      29.79R
GUADALUPE PASS CLEAR     46  29  51 SW25      29.86R WCI  37
MARFA          CLEAR     46  31  55 S5        29.92R
PECOS          CLEAR     56  33  41 W18       29.75S
$$

DALLAS/FORT WORTH METROPLEX

CITY           SKY/WX    TMP DP  RH WIND       PRES   REMARKS
DFW AIRPORT    CLOUDY    51  47  86 SW5       29.72R
FTW MEACHAM    CLOUDY    50  47  89 CALM      29.72R
DAL-EXECUTIVE  CLOUDY    50  49  96 CALM      29.72R FOG
GRAND PRAIRIE  CLOUDY    50  49  96 CALM      29.75R
ADDISON        CLOUDY    50  50 100 SE3       29.72S
MESQUITE       LGT RAIN  48  46  93 CALM      29.73R FOG
LANCASTER      CLOUDY    50  47  92 CALM      29.74R FOG
$$

NORTH CENTRAL TEXAS

CITY           SKY/WX    TMP DP  RH WIND       PRES   REMARKS
SHRMAN/DENISON LGT RAIN  47  47 100 CALM      29.74R
GAINESVILLE    CLOUDY    47  45  93 CALM      29.74R FOG
BRIDGEPORT     PTCLDY    45  45 100 S3        29.73F
DENTON         MOCLDY    48  48 100 SW5       29.72S FOG
WAXAHACHIE     CLOUDY    48  48 100 CALM      29.74R FOG
GRANBURY       CLOUDY    51  48  90 S3        29.74S
$$

WESTERN NORTH TEXAS

CITY           SKY/WX    TMP DP  RH WIND       PRES   REMARKS
WICHITA FALLS  PTCLDY    43  40  89 S5        29.67F
VERNON         CLEAR     45  39  79 SE3       29.67R
BRECKENRIDGE   CLEAR     47  46  96 S7        29.70S
COMANCHE       CLOUDY    46  46 100 S3        29.72F
$$

CENTRAL AND SOUTH CENTRAL TEXAS

CITY           SKY/WX    TMP DP  RH WIND       PRES   REMARKS
AUSTIN/BERGSTM CLOUDY    52  51  97 S3        29.78R
WACO           CLOUDY    49  49 100 S7        29.75R
HILLSBORO      DRIZZLE   49  49  98 SW7       29.75R
TEMPLE         CLOUDY    50  49  96 S6        29.76R FOG
KILLEEN-GRAY   CLOUDY    50  50 100 SW3       29.74R
FORT HOOD      CLOUDY    49  49 100 CALM      29.73R
GEORGETOWN     CLOUDY    50  46  87 SW3       29.76F
LAGO VISTA     FOG       51  50  97 W5        29.76S VSB 1/4
SAN MARCOS     CLOUDY    54  52  94 SW5       29.79S
NEW BRAUNFELS  PTCLDY    50  48  93 SW7       29.78R
RANDOLPH AFB   CLEAR     51  50  98 W7        29.79R
SAN ANTONIO    PTCLDY    50  47  89 SW6       29.79S
STINSON        CLEAR     50  47  89 W3        29.78S
PLEASANTON     NOT AVBL
LA GRANGE      CLOUDY    53  52  98 CALM      29.76S
GIDDINGS       CLOUDY    49  49  97 CALM      29.81S
$$

EAST TEXAS

CITY           SKY/WX    TMP DP  RH WIND       PRES   REMARKS
PARIS          CLOUDY    46  43  87 E5        29.73S
CLARKSVILLE    NOT AVBL
TYLER          LGT RAIN  49  48  97 E3        29.71F
LONGVIEW       HVY RAIN  48  48 100 E5        29.71
PALESTINE      CLOUDY    49  49 100 CALM      29.73S
NACOGDOCHES    CLOUDY    48  46  93 CALM      29.71F
$$

TEXAS HILL COUNTRY AND EDWARDS PLATEAU

CITY           SKY/WX    TMP DP  RH WIND       PRES   REMARKS
LLANO          CLEAR     48  48 100 CALM      29.79S
HORSESHOE BAY  FAIR      48  47  97 CALM      29.76S FOG
KERRVILLE      CLEAR     46  44  95 CALM      29.78R
FREDERICKSBRG  CLEAR     46  44  93 SW5       29.77R
ROCKSPRINGS    CLEAR     46  45  93 SW3       29.80S
HONDO          CLEAR     50  46  86 W7        29.80S
UVALDE         CLEAR     49  47  93 CALM      29.80F
DEL RIO        CLEAR     51  48  89 CALM      29.78S
$$

SOUTHEAST TEXAS

CITY           SKY/WX    TMP DP  RH WIND       PRES   REMARKS
COLLEGE STN    CLOUDY    50  50 100 W7        29.77S FOG
CALDWELL       NOT AVBL
CROCKETT       CLOUDY    48  48 100 SW7       29.77R
BRENHAM        CLOUDY    51  51  99 CALM      29.77F
HUNTSVILLE     CLOUDY    50  48  93 W5        29.75F FOG
CONROE         CLOUDY    50  49  96 SW6       29.76F FOG
HOUSTON BUSH   DRIZZLE   52  50  93 W3        29.77S FOG
HOUSTON HOBBY  CLOUDY    53  51  93 W9        29.77S
PERLAND        CLOUDY    54  51  90 W5        29.79R
WHARTON        MOCLDY    52  50  93 SW5       29.81R
$$

THE UPPER TEXAS COAST

CITY           SKY/WX    TMP DP  RH WIND       PRES   REMARKS
ORANGE         CLOUDY   N/A N/A N/A W5        29.74F
PORT ARTHUR    CLOUDY    54  52  93 W6        29.73S
GALVESTON      CLOUDY    55  53  93 W14G24    29.79R
ANGLETON       CLOUDY    55  51  86 W6        29.80R
BAY CITY       PTCLDY    53  52  95 SW3       29.81S
$$

TEXAS COASTAL BEND, RIO GRANDE PLAINS DEEP SOUTH TEXAS

CITY           SKY/WX    TMP DP  RH WIND       PRES   REMARKS
VICTORIA       CLEAR     49  48  97 S5        29.81R
BEEVILLE       FAIR      53  53 100 S6        29.82S
ROCKPORT         N/A    N/A N/A N/A MISG      29.83R
PORT ARANSAS   CLEAR     56  53  88 CALM      29.84R
PORT LAVACA    CLEAR     52  52 100 S6        29.82R
CORPUS CHRISTI CLEAR     53  52  96 S5        29.83R
KINGSVILLE NAS CLEAR     52  52 100 VRB5      29.84R
COTULLA        CLEAR     54  48  80 CALM      29.82R
LAREDO         CLEAR     56  52  86 SE3       29.84R
BROWNSVILLE    CLEAR     56  54  93 CALM      29.87R
PORT ISABEL    CLEAR     53  51  93 CALM      29.86R
HEBBRONVILLE   CLEAR     55  49  80 CALM      29.85R
MCALLEN        CLEAR     58  52  80 SW3       29.87R
WESLACO        CLEAR     56  52  84 SW5       29.86R
FALFURRIAS     CLEAR     56  51  83 CALM      29.84R
EDINBURG       CLEAR     58  52  80 SW6       29.86S
$$




USA.gov is the U.S. government's official web portal to all federal, state and local government web resources and services.